1998-067XY

Last updated on Sun Dec 14 2025 00:02:09 GMT+0000 (Coordinated Universal Time)

1 66912U 98067XY 25346.72752968 .00067169 00000+0 11286-2 0 9998 2 66912 51.6300 142.4585 0004576 223.4610 136.6019 15.51126460 1604
UTC large
Height (km)
Speed (km/s)
/
Latitude / Longitude
Inclination (degrees)
Orbital Period (minutes)
Azimuth
Elevation
Range (km)
Doppler Factor

Next 0 passes for location: London (51.5072 / 0.1276)

Sorry there are no passes over London.